Starlink 30110

operational
NORAD ID: 57474 Int'l Des: 2023-107 Owner: SPXS Country: US Constellation: starlink
LEOCIRCULAR

Starlink 30110について

説明を読み込み中...

リアルタイム位置

3D地球を読み込み中...

次回通過

高度履歴

Altitude vs Time

uPlot chart will show altitude changes over time

軌道要素

1 57474U 23107T 25306.50002315 .00154775 00000-0 34786-2 0 9991
2 57474 42.9938 261.3533 0027154 142.9038 229.8179 15.41673418 5848
Epoch: Nov 2, 2025 • Age: 11 hours

現在のステータス

高度 441.0 km
速度 7.65 km/s
衛星直下点 36.49°N, 78.07°W
打ち上げ日 Jul 28, 2023
運用期間 2.2 years
タイプ internet

技術仕様

分類 Payload
質量 730.00 kg
乾燥質量 700.00 kg
総質量 730.00 kg
長さ 0.30 m
直径 4.10 m
スパン 29.00 m
形状 Box + pan
製造者 SPXS
バスタイプ Starlink V2M
フェーズステータス In Orbit
所有者/国 SPXS/US

大規模コンステレーション

Loading constellations...